Simultaneous Nadir Overpasses (SNOs) Predictions

Prediction of SNOs between GOES-16 and METOP-C Satellite Orbit:

Table of predicted SNOs for the next 14.0 days since TLE Epoch: 2/3/2024
Index Date Time (GOES-16) GOES-16 Lat,Lon METOP-C Lat,Lon Distance(km) Time Diff (sec)
1 02/03/2024 14:13:34 0.01, -75.22 -0.85, -71.46 429.45 80
2 02/05/2024 02:35:14 -0.01, -75.20 -0.23, -76.04 96.43 80
3 02/06/2024 02:11:54 -0.01, -75.20 0.93, -71.05 473.16 80
4 02/07/2024 14:33:23 0.02, -75.23 0.10, -75.60 42.13 80
5 02/10/2024 02:29:03 -0.03, -75.22 -0.01, -75.20 3.42 80
6 02/12/2024 14:27:12 0.03, -75.27 -0.08, -74.75 59.41 80
7 02/14/2024 02:48:52 -0.03, -75.27 -0.92, -79.35 464.38 80
8 02/15/2024 02:25:32 -0.03, -75.28 0.19, -74.35 106.63 80
9 02/16/2024 14:47:01 0.03, -75.33 0.82, -78.90 406.88 80
